Content
SEND FEEDBACK

Daily
Averages
Monthly
Summary
Turkmenistan

ASHGABAT, TURKMENISTAN


Home > Asia > Turkmenistan
Elevation: 775 feet     Latitude: 37 58N     Longitude: 058 20E

WEATHER
 
SELECT A DAY
Number of Records: 177,491;   Date Range: 3/15/97 - 9/3/14
 
SHARE

PRINT THIS DATA

[ ← Previous Day ]
WEATHER ALMANAC - JUNE 14, 2013
[ Next Day → ]
[ °C ]   °F
Weather ElementAverageHighLow
Temperature86.4 °F98.6 °F (3:00 pm)69 °F (5:00 am)
Dewpoint34.3 °F49 °F (5:00 am)26.6 °F (1:00 pm)
Humidity15.5 %38 % (5:00 am)6 % (2:00 pm)
Barometer29.83 in29.89 in (8:00 am)29.76 in (8:00 pm)
Wind Speed6.6 mph11.2 mph (2:00 pm)
Weather ElementAverage
Visibility6.1 mi
Wind DirectionE (94.5 °)

Weather ElementTotal
Precipitation---
Cooling Degree Days18.8 (Base 65)
Growing Degree Days33.8 (Base 50)
Averaged from 31 records on June 14, 2013
WEATHER CONDITIONS BREAKOUT
WIND DIRECTION BREAKOUT
WEATHER BY HOUR - JUNE 14, 2013
[ °C ]   °F
Local TimeTemperatureDewpointHumidityBarometerVisibilityWind DirectionWind SpeedGust SpeedPrecipitationEventsConditions
1:00 AM82.4 °F30.2 °F15 %29.83 in6.2 miSE (140°)6.7 mphPartly Cloudy
2:00 AM81.0 °F43.0 °F16 %29.80 in6.0 miSE (130°)4.5 mph
2:00 AM78.8 °F32.0 °F18 %29.83 in6.2 miSE (130°)6.7 mphClear
3:00 AM78.8 °F33.8 °F20 %29.80 in6.2 miENE (70°)4.5 mphClear
4:00 AM73.4 °F37.4 °F27 %29.83 in6.2 miSW (220°)4.5 mphClear
5:00 AM69.0 °F49.0 °F38 %29.82 in6.0 miSouth (190°)2.2 mph
5:00 AM69.8 °F41.0 °F35 %29.83 in6.2 miVariable2.2 mphClear
6:00 AM69.8 °F41.0 °F35 %29.86 in6.2 miVariable2.2 mphClear
7:00 AM75.2 °F39.2 °F27 %29.86 in6.2 miVariable2.2 mphClear
8:00 AM80.0 °F46.0 °F20 %29.86 in6.0 miEast (80°)4.5 mph
8:00 AM82.4 °F30.2 °F15 %29.89 in6.2 miEast (80°)4.5 mphClear
9:00 AM84.2 °F32.0 °F15 %29.89 in6.2 miEast (80°)6.7 mphClear
10:00 AM87.8 °F32.0 °F14 %29.89 in6.2 miEast (100°)8.9 mphClear
11:00 AM89.0 °F38.0 °F9 %29.85 in6.0 miESE (120°)8.9 mph
11:00 AM89.6 °F30.2 °F12 %29.89 in6.2 miEast (90°)8.9 mphClear
12:00 PM93.2 °F28.4 °F10 %29.86 in6.2 miEast (90°)6.7 mphClear
1:00 PM95.0 °F26.6 °F9 %29.86 in6.2 miEast (90°)6.7 mphClear
2:00 PM96.0 °F35.0 °F6 %29.82 in6.0 miENE (60°)11.2 mph
2:00 PM96.8 °F26.6 °F8 %29.83 in6.2 miENE (70°)11.2 mphClear
3:00 PM98.6 °F28.4 °F8 %29.83 in6.2 miNE (50°)8.9 mphClear
4:00 PM98.6 °F26.6 °F8 %29.80 in6.2 miESE (120°)6.7 mphClear
5:00 PM96.0 °F38.0 °F7 %29.78 in6.0 miESE (110°)8.9 mph
5:00 PM98.6 °F28.4 °F8 %29.80 in6.2 miESE (110°)8.9 mphClear
6:00 PM98.6 °F26.6 °F8 %29.80 in6.2 miENE (60°)11.2 mphClear
7:00 PM96.8 °F28.4 °F9 %29.80 in6.2 miNE (50°)6.7 mphClear
8:00 PM93.0 °F42.0 °F9 %29.76 in6.0 miEast (100°)6.7 mph
8:00 PM93.2 °F30.2 °F11 %29.80 in6.2 miEast (100°)6.7 mphClear
9:00 PM87.8 °F32.0 °F14 %29.80 in6.2 miEast (80°)6.7 mphClear
10:00 PM82.4 °F30.2 °F15 %29.80 in6.2 miESE (110°)6.7 mphClear
11:00 PM83.0 °F44.0 °F16 %29.79 in6.0 miSSE (150°)6.7 mph
11:00 PM80.6 °F35.6 °F20 %29.83 in6.2 miSSE (150°)4.5 mphClear
Hourly data recorded from UTAA, located miles away from Ashgabat, Turkmenistan







STORIES FROM OUR PARTNERS